This demonstration page uses our WeatherBlox Daily Observations layout. Learn more.

Left ArrowRight Arrow

39.92423, -83.80882

Hourly Observations for April 15, 2020

Temp ( °F °C ) Dew Point ( °F °C ) Humidity (%) Winds ( mph kmh ) Pressure ( in mb ) Visibility ( mi km ) Precip ( " mm )
12:56 am 00:56 Clear 31 -0.6 26 -3.3 82 82 WSW 3 6 30.17 1022 10 16.0934 0 0
1:56 am 01:56 Clear 30 -1.1 26 -3.3 85 85 W 5 7 30.17 1022 10 16.0934 0 0
2:56 am 02:56 Clear 30 -1.1 26 -3.3 85 85 W 5 7 30.15 1021 10 16.0934 0 0
3:56 am 03:56 Clear 30 -1.1 24 -4.4 79 79 SW 5 7 30.13 1020 10 16.0934 0 0
4:56 am 04:56 Clear 29 -1.7 24 -4.4 82 82 SSW 3 6 30.12 1020 10 16.0934 0 0
5:56 am 05:56 Clear 30 -1.1 22 -5.6 72 72 SSW 6 9 30.11 1020 10 16.0934 0 0
6:56 am 06:56 Clear 30 -1.1 22 -5.6 72 72 S 6 9 30.09 1019 10 16.0934 0 0
7:56 am 07:56 Sunny 32 0 23 -5 69 69 SSW 6 9 30.1 1019 10 16.0934 0 0
8:56 am 08:56 Sunny 35 1.7 22 -5.6 59 59 SSW 7 11 30.09 1019 10 16.0934 0 0
9:56 am 09:56 Sunny 40 4.4 24 -4.4 53 53 SSW 13 20 30.06 1018 10 16.0934 0 0
10:56 am 10:56 Sunny 43 6.1 23 -5 45 45 SW 20 31 30.05 1018 10 16.0934 0 0
11:56 am 11:56 Mostly Sunny 46 7.8 27 -2.8 47 47 WSW 20 31 30.02 1017 10 16.0934 0 0
12:56 pm 12:56 Mostly Cloudy 48 8.9 26 -3.3 42 42 SW 28 44 29.98 1015 10 16.0934 0 0
1:56 pm 13:56 Mostly Cloudy 48 8.9 25 -3.9 41 41 SW 23 37 29.96 1015 10 16.0934 0 0
2:56 pm 14:56 Cloudy 45 7.2 30 -1.1 56 56 W 24 39 29.98 1015 10 16.0934 0 0
3:53 pm 15:53 Cloudy with Light Rain 41 5 37 3 87 87 W 22 35 30 1016 9 14.48406 0.001 0.001
3:56 pm 15:56 Cloudy with Light Rain 41 5 37 2.8 86 86 W 20 31 30.01 1016 9 14.48406 0.001 0.001
4:20 pm 16:20 Cloudy with Light Rain 39 4 37 3 93 93 W 13 20 30.02 1016 8 12.87472 0.001 0.001
4:49 pm 16:49 Cloudy 43 6 37 3 81 81 W 13 20 30 1016 10 16.0934 0.001 0.001
4:56 pm 16:56 Cloudy with Nearby Thunderstorms 42 5.6 36 2.2 79 79 W 18 30 30 1016 10 16.0934 0.001 0.001
5:03 pm 17:03 Cloudy with Nearby Thunderstorms 39 4 36 2 87 87 WNW 31 50 30.04 1017 2 3.21868 0.001 0.001
5:05 pm 17:05 Cloudy with Nearby Thunderstorms 37 3 34 1 87 87 WNW 28 44 30.04 1017 0.75 1.207005 0.001 0.001
5:11 pm 17:11 Cloudy with Nearby Thunderstorms 34 1 34 1 100 100 WNW 17 28 30.05 1018 0.5 0.80467 0.001 0.001
5:16 pm 17:16 Cloudy with Nearby Thunderstorms 34 1 34 1 100 100 WNW 14 22 30.05 1018 1.25 2.011675 0.01 0.254
5:18 pm 17:18 Cloudy with Light Snow 34 1 34 1 100 100 WNW 12 19 30.05 1018 2.5 4.02335 0.02 0.508
5:25 pm 17:25 Cloudy with Light Snow 36 2 36 2 100 100 WNW 14 22 30.04 1017 6 9.65604 0.02 0.508
5:48 pm 17:48 Cloudy 37 3 36 2 93 93 WNW 14 22 30.05 1018 10 16.0934 0.02 0.508
5:56 pm 17:56 Cloudy 38 3.3 36 2.2 93 93 W 13 20 30.05 1018 10 16.0934 0.02 0.508
6:14 pm 18:14 Cloudy 37 3 36 2 93 93 W 16 26 30.07 1018 10 16.0934 0 0
6:37 pm 18:37 Mostly Cloudy 39 4 32 0 75 75 W 21 33 30.07 1018 10 16.0934 0 0
6:46 pm 18:46 Mostly Cloudy 37 3 32 0 81 81 WNW 20 31 30.08 1019 10 16.0934 0 0
6:54 pm 18:54 Mostly Cloudy 37 3 30 -1 75 75 WNW 18 30 30.08 1019 10 16.0934 0 0
6:56 pm 18:56 Partly Cloudy 38 3.3 31 -0.6 76 76 WNW 23 37 30.08 1019 10 16.0934 0 0
7:56 pm 19:56 Mostly Sunny 37 2.8 25 -3.9 62 62 WNW 17 28 30.1 1019 10 16.0934 0 0
8:56 pm 20:56 Mostly Clear 35 1.7 26 -3.3 70 70 WNW 10 17 30.13 1020 10 16.0934 0 0
9:56 pm 21:56 Mostly Clear 34 1.1 27 -2.8 76 76 NW 8 13 30.16 1021 10 16.0934 0 0
10:56 pm 22:56 Mostly Clear 32 0 26 -3.3 79 79 NW 9 15 30.19 1022 10 16.0934 0 0
11:56 pm 23:56 Clear 30 -1.1 25 -3.9 82 82 WNW 7 11 30.2 1023 10 16.0934 0 0

Powered by AerisWeather